Regional Weather Roundup
Issued by NWS

Home | Current Version | Previous Version | Text Only | Print | Product List | Glossary Off
Versions: 1 2 3 4 5 6 7 8 9 10 11 12 13 14 15 16 17 18 19 20 21 22 23 24 25 26 27 28 29 30 31 32 33 34 35 36 37 38 39 40 41 42 43 44 45 46 47 48 49 50

000
ASUS43 KMPX 241810
RWRMN
WEATHER ROUNDUP FOR MINNESOTA
NATIONAL WEATHER SERVICE TWIN CITIES/CHANHASSEN MN
100 PM CDT MON JUL 24 2017


NOTE: "FAIR" INDICATES FEW OR NO CLOUDS BELOW 12,000 FEET WITH NO
SIGNIFICANT WEATHER AND/OR OBSTRUCTIONS TO VISIBILITY. N/A MEANS
CURRENT SKY AND/OR WEATHER CONDITIONS ARE NOT AVAILABLE.

MNZ060>063-068>070-241900-
   Twin Cities Metro

CITY           SKY/WX    TMP DP  RH WIND       PRES   REMARKS
TWIN CITIES    PTSUNNY   73  59  61 SE9       30.06S
6HR MIN TEMP:  62; 6HR MAX TEMP:  74;

ST PAUL        MOSUNNY   75  60  59 SE9       30.05F
CRYSTAL        MOSUNNY   74  56  53 VRB6      30.03F
BLAINE         PTSUNNY   75  59  57 SE7       30.04F
LAKEVILLE      CLOUDY    70  59  68 S6        30.07S
EDEN PRAIRIE   PTSUNNY   74  59  59 S7        30.04F
6HR MIN TEMP:  63; 6HR MAX TEMP:  74;

SOUTH ST PAUL  CLOUDY    74  58  56 SE6       30.05F
LAKE ELMO      PTSUNNY   72  59  64 E3        30.07S
$$
MNZ001>005-007-008-013>017-022>024-027-028-241900-
   Northwest Minnesota

CITY           SKY/WX    TMP DP  RH WIND       PRES   REMARKS
BEMIDJI        SUNNY     74  57  55 S8        30.02S
HALLOCK        SUNNY     77  64  65 S17G23    29.90F
ROSEAU         SUNNY     79  66  65 S13       29.95F
WARROAD        SUNNY     77  66  69 S9        29.96F
THIEF RVR FALL PTSUNNY   76  62  62 S15       29.97F
CROOKSTON      CLOUDY    75  63  64 S14       29.95S
FOSSTON        CLOUDY    75  61  60 S12       29.99F
DETROIT LAKES  MOSUNNY   73  59  60 SE14      30.00F
MOORHEAD       MOSUNNY   75  63  64 SE15G21   29.96F
PARK RAPIDS    MOSUNNY   75  57  53 S8        30.02F
MAHNOMEN       FAIR      76  61  60 S7        29.98F
$$
MNZ006-009>011-018-025>026-241900-
   North Central Minnesota

CITY           SKY/WX    TMP DP  RH WIND       PRES   REMARKS
BAUDETTE       MOSUNNY   78  59  51 S10       29.98F
FLAG ISLAND    SUNNY     75  64  69 S10       29.95F
INTL FALLS     SUNNY     76  53  44 S8        30.02F
6HR MIN TEMP:  58; 6HR MAX TEMP:  76;

WASKISH        PTSUNNY   77  57  50 SE7       30.00F
BIG FORK       SUNNY     77  57  50 S9        30.04S
LONGVILLE      SUNNY     73  57  56 SE3       30.04F
GRAND RAPIDS   SUNNY     70  58  65 SE9       30.07F
CRANE LAKE     SUNNY     73  52  46 S7        30.06F
ORR            SUNNY     75  50  41 S9        30.03S
COOK           SUNNY     73  54  49 S7        30.06F
WALKER         FAIR      73  57  56 SE9       30.02F
$$
MNZ012-019>021-037-241900-
   Northeast Minnesota

CITY           SKY/WX    TMP DP  RH WIND       PRES   REMARKS
DULUTH         MOSUNNY   70  54  56 SE9       30.08F
6HR MIN TEMP:  53; 6HR MAX TEMP:  71;

ELY            SUNNY     73  48  40 SW6       30.07S
HIBBING        SUNNY     72  51  47 VRB6      30.06F
EVELETH        SUNNY     73  41  31 S6        30.08F
DULUTH HARBOR  SUNNY     63  59  88 E7        30.08F
TWO HARBORS    SUNNY     73  57  56 SE5       30.07S
GRAND MARAIS     N/A     57  56  96 SW9       30.08F
G MARAIS ARPRT SUNNY     72  48  43 S6        30.11S
$$
MNZ029>031-032-039>041-046>048-054>057-064-241900-
   West Central Minnesota

CITY           SKY/WX    TMP DP  RH WIND       PRES   REMARKS
FERGUS FALLS   MOSUNNY   73  63  68 S14       29.97F
WHEATON        MOSUNNY   75  61  60 S14       29.98F
MORRIS         MOSUNNY   77  61  57 SE12      29.99S
ALEXANDRIA     MOSUNNY   72  60  66 SE9       30.03F
ELBOW LAKE     FAIR      74  63  68 SE13      30.00F
WADENA         PTSUNNY   72  57  60 SE10      30.02F
GLENWOOD       CLOUDY    75  61  60 SE8       30.03F
APPLETON       MOSUNNY   77  61  57 SE12G20   29.98F
BENSON         SUNNY     75  61  60 S10G17    30.01F
ORTONVILLE     SUNNY     77  63  61 SE14      29.97F
MADISON        MOSUNNY   81  64  57 SE12      29.98F
WILLMAR        FAIR      73  63  68 SE10      30.02F
$$
MNZ033>034-036-042>043-049>051-058-059-241900-
   Central Minnesota

CITY           SKY/WX    TMP DP  RH WIND       PRES   REMARKS
ST CLOUD       PTSUNNY   71  60  68 SE6       30.04F
6HR MIN TEMP:  55; 6HR MAX TEMP:  73;

SAUK CENTRE    FAIR      73  60  65 SE8       30.04F
PAYNESVILLE    CLOUDY    73  60  63 E6        30.04F
AITKIN         SUNNY     70  59  68 SE6       30.05F
PINE RIVER     CLOUDY    72  55  56 SE6       30.07F
BRAINERD       MOSUNNY   68  58  70 S3        30.05F
STAPLES        CLOUDY    73  55  53 SE5       30.03F
LONG PRAIRIE   FAIR      70  59  68 E6        30.05S
LITTLE FALLS   PTSUNNY   70  59  68 SE8       30.05F
LITCHFIELD     CLOUDY    75  63  64 SE7       30.05F
BUFFALO        PTSUNNY   73  57  57 SE5       30.05F
MAPLE LAKE     PTSUNNY   76  63  62 SE6       30.05F
HUTCHINSON     PTSUNNY   72  62  71 SE3       30.06F
$$
MNZ037-044-045-052-053-241900-
   East Central Minnesota

CITY           SKY/WX    TMP DP  RH WIND       PRES   REMARKS
PRINCETON      CLOUDY    75  61  60 E3        30.05F
MORA           PTSUNNY   70  59  68 E5        30.07F
CAMBRIDGE      CLOUDY    75  61  60 SE7       30.04F
RUSH CITY      MOSUNNY   72  59  62 S3        30.06F
MOOSE LAKE     SUNNY     72  55  56 CALM      30.05S
HINCKLEY       FAIR      68  59  73 CALM      30.07F
CLOQUET        SUNNY     70  54  56 SE7       30.07F
MCGREGOR       MOSUNNY   72  59  64 SE6       30.06F
$$
MNZ071>073-080-081-089-090-097-098-241900-
   Southwest Minnesota

CITY           SKY/WX    TMP DP  RH WIND       PRES   REMARKS
MONTEVIDEO     MOSUNNY   79  63  57 S9        30.01S
GRANITE FALLS  MOSUNNY   77  63  62 SE8G16    30.02F
CANBY          MOSUNNY   79  61  54 SE6       29.99F
MARSHALL       MOSUNNY   76  62  62 SE9G17    30.00F
REDWOOD FALLS  MOSUNNY   75  60  59 SE8       30.01F
OLIVIA         CLOUDY    73  63  68 SE9       30.02F
PIPESTONE      MOSUNNY   75  63  64 S9        30.01F
WINDOM         SUNNY     75  61  60 E7        30.04S
JACKSON        MOSUNNY   73  59  60 CALM      30.05S
TRACY          MOSUNNY   76  64  65 SE9       30.01F
SLAYTON        HVY RAIN  74  60  62 SE7       30.03F
$$
MNZ065>067-074>077-082>085-091>093-241900-
   South Central Minnesota

CITY           SKY/WX    TMP DP  RH WIND       PRES   REMARKS
MANKATO        CLOUDY    71  61  70 SE7       30.06S
NEW ULM        MOSUNNY   72  59  64 E5        30.03F
ST JAMES       SUNNY     73  63  68 E7        30.05S
FAIRMONT       MOSUNNY   73  62  68 SE8       30.04F
GLENCOE        CLOUDY    73  63  69 E8        30.04F
FARIBAULT      CLOUDY    72  61  68 E6        30.07S
OWATONNA       CLOUDY    72  61  68 SE6       30.07S
WASECA         CLOUDY    72  61  68 E5        30.07F
ALBERT LEA     CLOUDY    72  61  68 SE8       30.06F
$$
MNZ078>079-086>088-094>096-241900-
   Southeast Minnesota

CITY           SKY/WX    TMP DP  RH WIND       PRES   REMARKS
ROCHESTER      CLOUDY    69  60  73 CALM      30.08S
6HR MIN TEMP:  60; 6HR MAX TEMP:  71;

RED WING       SUNNY     75  55  50 SE7       30.06R
STANTON        CLOUDY    72  59  62 SE5       30.06S
DODGE CENTER   CLOUDY    70  57  64 E7        30.08S
WINONA         PTSUNNY   70  57  64 SE9       30.09S
AUSTIN         CLOUDY    72  57  60 SE5       30.07S
PRESTON        MOSUNNY   69  56  62 SE5       30.09S
$$
ABBREVIATIONS USED IN REMARKS
   TC - TEMPERATURES IN CELSIUS
  WCI - WIND CHILL INDEX
   HX - HEAT INDEX
  VSB - VISIBILITY
$$



USA.gov is the U.S. government's official web portal to all federal, state and local government web resources and services.